Previsão horária em Plohovka

Hoje, 27 Fevereiro, Sábado

Tempo Temperatura Precipitação Vento Pressão Humidade
00:00 -3°C° 0.2 mm 7 m/s 734 mmHg 96%
01:00 -7°C° 0.3 mm 7 m/s 734 mmHg 94%
02:00 -11°C° 0.3 mm 7 m/s 735 mmHg 91%
03:00 -14°C° 0.3 mm 6 m/s 736 mmHg 89%
04:00 -15°C° 0 mm 6 m/s 737 mmHg 89%
05:00 -15°C° 0 mm 5 m/s 737 mmHg 90%
06:00 -16°C° 0 mm 4 m/s 738 mmHg 90%
07:00 -16°C° 0 mm 4 m/s 739 mmHg 90%
08:00 -16°C° 0 mm 4 m/s 739 mmHg 91%
09:00 -16°C° 0 mm 3 m/s 740 mmHg 91%
10:00 -15°C° 0 mm 3 m/s 741 mmHg 90%
11:00 -13°C° 0 mm 3 m/s 741 mmHg 90%
12:00 -12°C° 0 mm 3 m/s 741 mmHg 89%
13:00 -12°C° 0 mm 3 m/s 742 mmHg 89%
14:00 -10°C° 0 mm 3 m/s 742 mmHg 89%
15:00 -9°C° 0 mm 3 m/s 743 mmHg 89%
16:00 -9°C° 0 mm 2 m/s 743 mmHg 91%
17:00 -9°C° 0 mm 2 m/s 743 mmHg 93%
18:00 -9°C° 0 mm 2 m/s 744 mmHg 95%
19:00 -10°C° 0 mm 2 m/s 744 mmHg 95%
20:00 -10°C° 0 mm 2 m/s 745 mmHg 95%
21:00 -12°C° 0 mm 2 m/s 745 mmHg 96%
22:00 -10°C° 0 mm 1 m/s 745 mmHg 96%
23:00 -10°C° 0 mm 1 m/s 745 mmHg 96%

Amanhã, 28 Fevereiro, Domingo

Tempo Temperatura Precipitação Vento Pressão Humidade
00:00 -10°C° 0 mm 1 m/s 746 mmHg 96%
01:00 -10°C° 0 mm 1 m/s 746 mmHg 96%
02:00 -10°C° 0 mm 1 m/s 746 mmHg 96%
03:00 -10°C° 0 mm 1 m/s 746 mmHg 96%
04:00 -9°C° 0.1 mm 1 m/s 746 mmHg 96%
05:00 -9°C° 0.1 mm 1 m/s 746 mmHg 96%
06:00 -8°C° 0.1 mm 1 m/s 746 mmHg 96%
07:00 -7°C° 0.1 mm 1 m/s 746 mmHg 96%
08:00 -7°C° 0.1 mm 1 m/s 746 mmHg 96%
09:00 -6°C° 0.1 mm 1 m/s 746 mmHg 96%
10:00 -4°C° 0.1 mm 1 m/s 746 mmHg 94%
11:00 -3°C° 0.1 mm 1 m/s 746 mmHg 93%
12:00 -2°C° 0.1 mm 1 m/s 746 mmHg 92%
13:00 -3°C° 0 mm 2 m/s 746 mmHg 91%
14:00 -3°C° 0 mm 2 m/s 747 mmHg 91%
15:00 -3°C° 0 mm 2 m/s 747 mmHg 90%
16:00 -3°C° 0 mm 2 m/s 747 mmHg 92%
17:00 -2°C° 0 mm 1 m/s 747 mmHg 93%
18:00 -3°C° 0 mm 1 m/s 747 mmHg 94%
19:00 -3°C° 0 mm 1 m/s 748 mmHg 94%
20:00 -4°C° 0 mm 1 m/s 748 mmHg 95%
21:00 -4°C° 0 mm 1 m/s 749 mmHg 95%
22:00 -6°C° 0 mm 1 m/s 749 mmHg 96%
23:00 -6°C° 0 mm 1 m/s 749 mmHg 96%

Depois de amanhã, 1 Março, Segunda-feira

Tempo Temperatura Precipitação Vento Pressão Humidade
00:00 -7°C° 0 mm 0 m/s 750 mmHg 97%
01:00 -7°C° 0 mm 0 m/s 750 mmHg 96%
02:00 -6°C° 0 mm 1 m/s 750 mmHg 96%
03:00 -6°C° 0 mm 1 m/s 750 mmHg 96%
04:00 -7°C° 0 mm 1 m/s 750 mmHg 96%
05:00 -7°C° 0 mm 1 m/s 750 mmHg 96%
06:00 -8°C° 0 mm 1 m/s 750 mmHg 96%
07:00 -7°C° 0 mm 1 m/s 750 mmHg 96%
08:00 -7°C° 0 mm 1 m/s 751 mmHg 95%
09:00 -7°C° 0 mm 1 m/s 751 mmHg 95%
10:00 -6°C° 0 mm 2 m/s 751 mmHg 94%
11:00 -5°C° 0 mm 2 m/s 751 mmHg 94%
12:00 -4°C° 0 mm 3 m/s 751 mmHg 93%
13:00 -2°C° 0 mm 3 m/s 750 mmHg 93%
14:00 -3°C° 0 mm 4 m/s 750 mmHg 93%
15:00 -2°C° 0 mm 4 m/s 750 mmHg 93%
16:00 -2°C° 0 mm 4 m/s 749 mmHg 93%
17:00 -2°C° 0 mm 4 m/s 748 mmHg 93%
18:00 -2°C° 0 mm 4 m/s 747 mmHg 93%
19:00 -2°C° 0.1 mm 5 m/s 747 mmHg 94%
20:00 -2°C° 0.1 mm 5 m/s 746 mmHg 94%
21:00 -1°C° 0.1 mm 5 m/s 746 mmHg 95%
22:00 -1°C° 0 mm 5 m/s 745 mmHg 94%
23:00 -1°C° 0 mm 5 m/s 744 mmHg 93%

2 Março, Terça-feira

Tempo Temperatura Precipitação Vento Pressão Humidade
00:00 -1°C° 0 mm 5 m/s 744 mmHg 92%
01:00 -1°C° 0 mm 5 m/s 743 mmHg 93%
02:00 -2°C° 0 mm 5 m/s 743 mmHg 95%
03:00 -2°C° 0 mm 5 m/s 742 mmHg 96%
04:00 -2°C° 0.1 mm 5 m/s 741 mmHg 96%
05:00 -2°C° 0.1 mm 5 m/s 741 mmHg 96%
06:00 -1°C° 0.1 mm 5 m/s 741 mmHg 97%
07:00 -2°C° 0.2 mm 5 m/s 741 mmHg 96%
08:00 -2°C° 0.2 mm 5 m/s 741 mmHg 96%
09:00 -2°C° 0.2 mm 5 m/s 741 mmHg 95%
10:00 -3°C° 0.1 mm 6 m/s 741 mmHg 94%
11:00 -3°C° 0.1 mm 6 m/s 741 mmHg 93%
12:00 -3°C° 0.1 mm 6 m/s 741 mmHg 92%
13:00 -3°C° 0.1 mm 6 m/s 741 mmHg 91%
14:00 -3°C° 0.1 mm 6 m/s 741 mmHg 91%
15:00 -3°C° 0.1 mm 6 m/s 741 mmHg 90%
16:00 -3°C° 0.1 mm 6 m/s 742 mmHg 90%
17:00 -4°C° 0.1 mm 6 m/s 742 mmHg 91%
18:00 -4°C° 0.1 mm 5 m/s 742 mmHg 92%
19:00 -4°C° 0.1 mm 5 m/s 743 mmHg 91%
20:00 -5°C° 0.1 mm 6 m/s 743 mmHg 91%
21:00 -5°C° 0.1 mm 6 m/s 744 mmHg 90%
22:00 -6°C° 0 mm 6 m/s 744 mmHg 89%
23:00 -6°C° 0 mm 6 m/s 744 mmHg 88%

3 Março, Quarta-feira

Tempo Temperatura Precipitação Vento Pressão Humidade
00:00 -7°C° 0 mm 5 m/s 744 mmHg 87%
01:00 -7°C° 0 mm 5 m/s 745 mmHg 87%
02:00 -7°C° 0 mm 5 m/s 745 mmHg 88%
03:00 -7°C° 0 mm 5 m/s 745 mmHg 89%
04:00 -8°C° 0 mm 5 m/s 746 mmHg 90%
05:00 -8°C° 0 mm 4 m/s 746 mmHg 91%
06:00 -8°C° 0 mm 4 m/s 746 mmHg 92%
07:00 -8°C° 0 mm 4 m/s 747 mmHg 92%
08:00 -7°C° 0 mm 4 m/s 747 mmHg 92%
09:00 -5°C° 0 mm 4 m/s 748 mmHg 93%
10:00 -6°C° 0.1 mm 5 m/s 748 mmHg 91%
11:00 -5°C° 0.1 mm 5 m/s 748 mmHg 89%
12:00 -5°C° 0.1 mm 5 m/s 748 mmHg 88%
13:00 -5°C° 0 mm 5 m/s 748 mmHg 87%
14:00 -5°C° 0 mm 5 m/s 748 mmHg 87%
15:00 -4°C° 0 mm 5 m/s 748 mmHg 87%
16:00 -4°C° 0 mm 4 m/s 748 mmHg 89%
17:00 -4°C° 0 mm 4 m/s 748 mmHg 90%
18:00 -4°C° 0 mm 3 m/s 748 mmHg 91%
19:00 -4°C° 0 mm 3 m/s 748 mmHg 92%
20:00 -4°C° 0 mm 3 m/s 748 mmHg 93%
21:00 -5°C° 0 mm 3 m/s 748 mmHg 93%
22:00 -5°C° 0 mm 3 m/s 748 mmHg 93%
23:00 -5°C° 0 mm 3 m/s 748 mmHg 93%

4 Março, Quinta-feira

Tempo Temperatura Precipitação Vento Pressão Humidade
00:00 -5°C° 0 mm 3 m/s 747 mmHg 92%
01:00 -5°C° 0 mm 3 m/s 747 mmHg 93%
02:00 -6°C° 0 mm 3 m/s 746 mmHg 93%
03:00 -6°C° 0 mm 3 m/s 745 mmHg 93%
04:00 -5°C° 0 mm 4 m/s 744 mmHg 92%
05:00 -6°C° 0 mm 5 m/s 743 mmHg 91%
06:00 -6°C° 0 mm 5 m/s 743 mmHg 90%
07:00 -5°C° 0.2 mm 5 m/s 742 mmHg 91%
08:00 -5°C° 0.2 mm 5 m/s 741 mmHg 92%
09:00 -4°C° 0.2 mm 6 m/s 739 mmHg 92%
10:00 -4°C° 0 mm 6 m/s 739 mmHg 92%
11:00 -3°C° 0 mm 6 m/s 738 mmHg 92%
12:00 -2°C° 0 mm 6 m/s 737 mmHg 92%
13:00 -2°C° 0.1 mm 6 m/s 737 mmHg 93%
14:00 -3°C° 0.1 mm 6 m/s 736 mmHg 93%
15:00 -3°C° 0.1 mm 6 m/s 736 mmHg 94%
16:00 -3°C° 0.1 mm 6 m/s 736 mmHg 93%
17:00 -2°C° 0.1 mm 5 m/s 736 mmHg 93%
18:00 -2°C° 0.1 mm 5 m/s 736 mmHg 93%
19:00 -4°C° 0.2 mm 5 m/s 736 mmHg 91%
20:00 -4°C° 0.2 mm 4 m/s 736 mmHg 90%
21:00 -4°C° 0.2 mm 4 m/s 736 mmHg 89%
22:00 -6°C° 0 mm 3 m/s 737 mmHg 90%
23:00 -7°C° 0 mm 3 m/s 737 mmHg 90%
Mostrar mais

Necessitamos do seu Consentimento

A Meteoprog e os seus Fornecedores de Serviços podem armazenar e aceder a dados pessoais como cookies, identificadores do dispositivo ou outras tecnologias semelhantes existentes no seu dispositivo e processar estes dados para personalizar conteúdos e anúncios, assim como funcionalidades nas redes sociais e análise de tráfego.

  • Armazenar e/ou aceder a informações no seu dispositivo

    Os cookies, identificadores do dispositivo ou outras informações podem ser armazenados ou acedidos no seu dispositivo, para os fins acima indicados.

  • Anúncios e conteúdos personalizados, medição de anúncios e conteúdos, dados sobre o público-alvo e desenvolvimento de produtos

    Os anúncios e os conteúdos podem ser personalizados com base num perfil. Podem ser adicionados dados adicionais para uma maior personalização dos anúncios e dos conteúdos. A eficácia dos anúncios e dos conteúdos pode ser medida. Podem ser obtidas informações sobre o público que visualizou os anúncios e os conteúdos. Estes dados podem ser usados para desenvolver ou melhorar sistemas, softwares ou a experiência do utilizador.

Ao clicar em "Eu concordo”, permitirá o uso de cookies, identificadores do dispositivo e web beacons mencionados ou outras tecnologias semelhantes. As configurações do navegador do seu dispositivo podem ser alteradas.

Para certos fins, podem ser invocados interesses legítimos ao invés de consentimento. Pode ler mais informação sobre este assunto na nossa Política de Privacidade e Cookies.